KD4KKF Weather Reports


time (UTC)temp
C
wind
direction
speed
KPH
gust
KPH
rain 1hr
cm
rain 24hr
cm
rain mn
cm
humidity
%
barometer
mb
20260510180414 24 272 3.2 4.8 0.00 0.00 0.00 75 1016.4
20260510175910 24 292 3.2 3.2 0.00 0.00 0.00 73 1016.5
20260510175406 24 155 0.0 1.6 0.00 0.00 0.00 76 1016.6
20260510174902 24 173 3.2 3.2 0.00 0.00 0.00 76 1016.5
20260510174401 24 173 3.2 3.2 0.00 0.00 0.00 75 1016.9
20260510173856 23 155 0.0 0.0 0.00 0.00 0.00 79 1016.9
20260510173352 23 30 4.8 4.8 0.00 0.00 0.00 81 1016.9
20260510172849 23 296 3.2 4.8 0.00 0.00 0.00 82 1017.0
20260510172345 23 16 4.8 4.8 0.00 0.00 0.00 80 1017.1
20260510171841 23 332 3.2 3.2 0.00 0.00 0.00 80 1016.9
20260510171339 23 98 1.6 3.2 0.00 0.00 0.00 82 1017.2
20260510170836 22 153 3.2 4.8 0.00 0.00 0.00 86 1016.9
20260510170332 22 236 6.4 8.0 0.00 0.00 0.00 85 1017.2
20260510165827 22 145 0.0 0.0 0.00 0.00 0.00 85 1017.4
20260510165324 22 156 0.0 0.0 0.00 0.00 0.00 88 1017.2
20260510164821 21 244 4.8 4.8 0.00 0.00 0.00 90 1017.5
20260510164319 21 191 0.0 1.6 0.00 0.00 0.00 90 1017.5
20260510163818 21 105 1.6 1.6 0.00 0.00 0.00 92 1017.2
20260510163315 21 236 3.2 4.8 0.00 0.00 0.00 91 1017.3
20260510162814 21 214 3.2 4.8 0.00 0.00 0.00 92 1017.5
20260510162311 21 196 3.2 4.8 0.00 0.00 0.00 89 1017.5
20260510161807 21 144 3.2 4.8 0.00 0.00 0.00 91 1017.5
20260510161303 21 193 1.6 1.6 0.00 0.00 0.00 93 1017.4
20260510160800 21 152 0.0 0.0 0.00 0.00 0.00 93 1017.5
20260510160257 20 205 0.0 1.6 0.00 0.00 0.00 96 1017.3
20260510155751 20 183 0.0 0.0 0.00 0.00 0.00 99 1017.5
20260510155248 19 90 1.6 1.6 0.00 0.00 0.00 99 1017.5
20260510154743 19 117 3.2 3.2 0.00 0.00 0.00 99 1017.5
20260510154240 18 74 3.2 4.8 0.00 0.00 0.00 99 1017.6
20260510153735 18 129 1.6 1.6 0.00 0.00 0.00 99 1017.5
20260510153231 18 173 3.2 3.2 0.00 0.00 0.00 99 1017.3
20260510152728 18 157 0.0 1.6 0.00 0.00 0.00 99 1017.4
20260510152224 18 142 0.0 0.0 0.00 0.00 0.00 99 1017.4
20260510151720 18 185 0.0 1.6 0.00 0.00 0.00 99 1017.4
20260510151220 18 197 1.6 1.6 0.00 0.00 0.00 99 1017.2
20260510150715 18 139 1.6 1.6 0.00 0.00 0.00 99 1017.4
20260510150210 18 141 1.6 3.2 0.00 0.00 0.00 99 1017.1
20260510145707 18 120 1.6 3.2 0.00 0.00 0.00 99 1017.1
20260510145203 18 137 1.6 1.6 0.00 0.00 0.00 99 1016.9
20260510144659 17 286 1.6 1.6 0.00 0.00 0.00 99 1017.1
20260510144156 18 163 3.2 3.2 0.00 0.00 0.00 99 1017.1
20260510143651 17 144 0.0 0.0 0.00 0.00 0.00 99 1017.1
20260510143148 18 216 1.6 1.6 0.00 0.00 0.00 99 1016.9
20260510142644 17 152 0.0 1.6 0.00 0.00 0.00 99 1017.1
20260510142141 17 115 1.6 1.6 0.00 0.00 0.00 99 1017.2
20260510141637 17 146 0.0 0.0 0.00 0.00 0.00 99 1017.3
20260510141136 17 177 0.0 0.0 0.00 0.00 0.00 99 1017.2
20260510140632 17 105 0.0 0.0 0.00 0.00 0.00 99 1017.1
20260510140132 17 138 0.0 0.0 0.00 0.00 0.00 99 1016.9
20260510135627 17 107 0.0 0.0 0.00 0.00 0.00 99 1016.9
20260510135123 17 109 0.0 0.0 0.00 0.00 0.00 99 1017.2
20260510134620 17 161 0.0 0.0 0.00 0.00 0.00 99 1017.1
20260510134117 17 76 0.0 0.0 0.00 0.00 0.00 99 1017.0
20260510133614 17 85 0.0 0.0 0.00 0.00 0.00 99 1017.1
20260510133109 17 176 0.0 0.0 0.00 0.00 0.00 99 1017.0
20260510132606 17 147 0.0 0.0 0.00 0.00 0.00 99 1017.1
20260510132103 17 127 0.0 0.0 0.00 0.00 0.00 99 1017.1
20260510131601 17 141 0.0 0.0 0.00 0.00 0.00 99 1017.0
20260510131058 17 139 0.0 0.0 0.00 0.00 0.00 99 1016.9
20260510130554 17 118 0.0 0.0 0.00 0.00 0.00 99 1016.9
20260510130052 17 153 0.0 0.0 0.00 0.00 0.00 99 1016.9
20260510125548 17 139 0.0 0.0 0.00 0.00 0.00 99 1016.7
20260510125044 17 230 0.0 0.0 0.00 0.00 0.00 99 1016.7
20260510124541 17 173 0.0 0.0 0.00 0.00 0.00 99 1016.8
20260510124038 17 157 0.0 0.0 0.00 0.00 0.00 99 1016.8
20260510123533 17 145 0.0 0.0 0.00 0.00 0.00 99 1016.4
20260510123030 16 179 0.0 0.0 0.00 0.00 0.00 99 1016.2
20260510122525 17 201 0.0 0.0 0.00 0.00 0.00 99 1016.5
20260510122022 16 113 0.0 0.0 0.00 0.00 0.00 99 1016.2
20260510121519 17 136 0.0 0.0 0.00 0.00 0.00 99 1016.2
20260510121016 17 148 0.0 0.0 0.00 0.00 0.00 99 1016.2
20260510120514 16 135 0.0 0.0 0.00 0.00 0.00 99 1016.0
20260510120009 16 57 0.0 0.0 0.00 0.00 0.00 99 1015.7
20260510115506 16 164 0.0 0.0 0.00 0.00 0.00 99 1015.5
20260510115003 16 194 0.0 0.0 0.00 0.00 0.00 99 1015.7
20260510114459 16 153 0.0 0.0 0.00 0.00 0.00 99 1015.5
20260510113955 16 128 0.0 0.0 0.00 0.00 0.00 99 1015.6
20260510113450 16 129 0.0 0.0 0.00 0.00 0.00 99 1015.6
20260510112948 16 150 0.0 0.0 0.00 0.00 0.00 99 1015.6
20260510112445 16 119 0.0 0.0 0.00 0.00 0.00 99 1015.2
20260510111941 16 143 0.0 0.0 0.00 0.00 0.00 99 1015.2
20260510111437 16 96 0.0 0.0 0.00 0.00 0.00 99 1015.0
20260510110933 16 66 0.0 0.0 0.00 0.00 0.00 99 1015.0
20260510110430 16 136 0.0 0.0 0.00 0.00 0.00 99 1014.8
20260510105926 16 101 0.0 0.0 0.00 0.00 0.00 99 1014.8
20260510105421 16 100 0.0 0.0 0.00 0.00 0.00 99 1014.7
20260510104916 16 76 0.0 0.0 0.00 0.00 0.00 99 1014.5
20260510104413 16 104 0.0 0.0 0.00 0.00 0.00 99 1014.5
20260510103909 16 120 0.0 0.0 0.00 0.00 0.00 99 1014.3
20260510103402 16 124 0.0 0.0 0.00 0.00 0.00 99 1014.3
20260510102857 16 97 0.0 0.0 0.00 0.00 0.00 99 1014.3
20260510102353 16 127 0.0 0.0 0.00 0.00 0.00 99 1014.3
20260510101850 16 135 0.0 0.0 0.00 0.00 0.00 99 1014.4
20260510101348 16 128 0.0 0.0 0.00 0.00 0.00 99 1014.4
20260510100845 16 55 0.0 0.0 0.00 0.00 0.00 99 1014.6
20260510100342 16 116 0.0 0.0 0.00 0.00 0.00 99 1014.2
20260510095838 16 81 0.0 0.0 0.00 0.00 0.00 99 1013.9
20260510095333 16 101 0.0 0.0 0.00 0.00 0.00 99 1014.0
20260510094832 16 102 0.0 0.0 0.00 0.00 0.00 99 1014.1
20260510094328 16 76 0.0 0.0 0.00 0.00 0.00 99 1013.8
20260510093825 16 80 0.0 0.0 0.00 0.00 0.00 99 1014.0
20260510093320 16 108 0.0 0.0 0.00 0.00 0.00 99 1013.7
20260510092817 16 110 0.0 0.0 0.00 0.00 0.00 99 1013.9
20260510092313 16 102 0.0 0.0 0.00 0.00 0.00 99 1013.6
20260510091809 16 129 0.0 0.0 0.00 0.00 0.00 99 1013.6
20260510091306 16 105 0.0 0.0 0.00 0.00 0.00 99 1013.9
20260510090803 17 148 0.0 0.0 0.00 0.00 0.00 99 1013.8
20260510090300 17 137 0.0 0.0 0.00 0.00 0.00 99 1013.5
20260510085755 17 117 0.0 0.0 0.00 0.00 0.00 99 1013.7
20260510085249 17 95 0.0 0.0 0.00 0.00 0.00 99 1013.7
20260510084745 17 95 0.0 0.0 0.00 0.00 0.00 99 1013.5
20260510084243 17 93 0.0 0.0 0.00 0.00 0.00 99 1013.7
20260510083739 17 98 0.0 0.0 0.00 0.00 0.00 99 1013.4
20260510083236 17 97 0.0 0.0 0.00 0.00 0.00 99 1013.3
20260510082732 17 100 0.0 0.0 0.00 0.00 0.00 99 1013.4
20260510082229 17 132 0.0 0.0 0.00 0.00 0.00 99 1013.6
20260510081728 17 132 0.0 0.0 0.00 0.00 0.00 99 1013.3
20260510081224 17 107 0.0 0.0 0.00 0.00 0.00 99 1013.3
20260510080719 17 108 0.0 0.0 0.00 0.00 0.00 99 1013.5
20260510080215 16 133 0.0 0.0 0.00 0.00 0.00 99 1013.3
20260510075712 16 144 0.0 0.0 0.00 0.00 0.00 99 1013.2
20260510075210 16 144 0.0 0.0 0.00 0.00 0.00 99 1013.2
20260510074707 16 146 0.0 0.0 0.00 0.00 0.00 99 1012.9
20260510074203 16 148 0.0 0.0 0.00 0.00 0.00 99 1013.0
20260510073700 16 144 0.0 0.0 0.00 0.00 0.00 99 1013.1
20260510073155 16 113 0.0 0.0 0.00 0.00 0.00 99 1012.9
20260510072651 16 140 0.0 0.0 0.00 0.00 0.00 99 1013.1
20260510072148 16 153 0.0 0.0 0.00 0.00 0.00 99 1013.0
20260510071644 16 145 0.0 0.0 0.00 0.00 0.00 99 1013.1
20260510071142 16 139 0.0 0.0 0.00 0.00 0.00 99 1013.0
20260510070639 16 139 0.0 0.0 0.00 0.00 0.00 99 1013.0
20260510070136 16 158 0.0 0.0 0.00 0.00 0.00 99 1013.1
20260510065632 16 155 0.0 0.0 0.00 0.00 0.00 99 1013.1
20260510065128 16 163 0.0 0.0 0.00 0.00 0.00 99 1013.1
20260510064624 16 163 0.0 0.0 0.00 0.00 0.00 99 1013.2
20260510064121 16 163 0.0 0.0 0.00 0.00 0.00 99 1013.2
20260510063618 16 164 0.0 0.0 0.00 0.00 0.00 99 1013.1
20260510063115 16 163 0.0 0.0 0.00 0.00 0.00 99 1013.3
20260510062611 16 164 0.0 0.0 0.00 0.00 0.00 99 1013.1
20260510062107 16 165 0.0 0.0 0.00 0.00 0.00 99 1013.2
20260510061603 16 165 0.0 0.0 0.00 0.00 0.00 99 1013.3
20260510061100 16 158 0.0 0.0 0.00 0.00 0.00 99 1013.5
20260510060556 16 158 0.0 0.0 0.00 0.00 0.00 99 1013.3
20260510060053 15 158 0.0 0.0 0.00 0.00 0.00 99 1013.3
20260510055548 15 158 0.0 0.0 0.00 0.00 0.00 99 1013.3
20260510055047 15 158 0.0 0.0 0.00 0.00 0.00 99 1013.3
20260510054543 15 158 0.0 0.0 0.00 0.00 0.00 99 1013.3
20260510054037 15 158 0.0 0.0 0.00 0.00 0.00 99 1013.3
20260510053532 15 158 0.0 0.0 0.00 0.00 0.00 99 1013.2
20260510053030 15 158 0.0 0.0 0.00 0.00 0.00 99 1013.5
20260510052525 15 158 0.0 0.0 0.00 0.00 0.00 99 1013.5
20260510052022 15 158 0.0 0.0 0.00 0.00 0.00 99 1013.4
20260510051517 15 158 0.0 0.0 0.00 0.00 0.00 99 1013.7
20260510051014 15 158 0.0 0.0 0.00 0.00 0.00 99 1013.5
20260510050511 15 158 0.0 0.0 0.00 0.00 0.00 99 1013.6
20260510050008 15 157 0.0 0.0 0.00 0.00 0.00 99 1013.6
20260510045506 15 157 0.0 0.0 0.00 0.00 0.00 99 1013.4
20260510045001 15 158 0.0 0.0 0.00 0.00 0.00 99 1013.6
20260510044459 15 158 0.0 0.0 0.00 0.00 0.00 99 1013.7
20260510043955 15 158 0.0 0.0 0.00 0.00 0.00 99 1013.5
20260510043451 15 158 0.0 0.0 0.00 0.00 0.00 99 1013.6
20260510042950 15 157 0.0 0.0 0.00 0.00 0.00 99 1013.6
20260510042445 16 157 0.0 0.0 0.00 0.00 0.00 99 1013.7
20260510041941 16 157 0.0 0.0 0.00 0.00 0.00 99 1013.5
20260510041438 16 157 0.0 0.0 0.00 0.00 0.00 99 1013.5
20260510040937 15 157 0.0 0.0 0.00 0.00 0.00 99 1013.5
20260510040433 15 157 0.0 0.0 0.00 0.00 0.00 99 1013.7
20260510035928 15 157 0.0 0.0 0.00 0.00 0.00 99 1013.8
20260510035425 15 157 0.0 0.0 0.00 0.00 0.00 99 1013.8
20260510034924 15 158 0.0 0.0 0.00 0.00 0.00 99 1013.8
20260510034424 15 158 0.0 0.0 0.00 0.00 0.00 99 1013.9
20260510033919 15 158 0.0 0.0 0.00 0.00 0.00 99 1013.7
20260510033416 15 158 0.0 0.0 0.00 0.00 0.00 99 1013.9
20260510032912 15 158 0.0 0.0 0.00 0.00 0.00 99 1013.7
20260510032409 15 158 0.0 0.0 0.00 0.00 0.00 99 1013.9
20260510031905 15 158 0.0 0.0 0.00 0.00 0.00 99 1013.9
20260510031400 16 157 0.0 0.0 0.00 0.00 0.00 99 1013.8
20260510030855 16 158 0.0 0.0 0.00 0.00 0.00 99 1013.7
20260510030352 16 158 0.0 0.0 0.00 0.00 0.00 99 1013.4
20260510025850 16 158 0.0 0.0 0.00 0.00 0.00 99 1013.4
20260510025347 16 157 0.0 0.0 0.00 0.00 0.00 99 1013.2
20260510024844 16 158 0.0 0.0 0.00 0.00 0.00 99 1013.6
20260510024340 16 157 0.0 0.0 0.00 0.00 0.00 99 1013.0
20260510023836 16 157 0.0 0.0 0.00 0.00 0.00 99 1013.2
20260510023333 16 158 0.0 0.0 0.00 0.00 0.00 99 1013.2
20260510022831 16 157 0.0 0.0 0.00 0.00 0.00 99 1013.0
20260510022329 16 157 0.0 0.0 0.00 0.00 0.00 99 1012.8
20260510021828 16 157 0.0 0.0 0.00 0.00 0.00 99 1013.0
20260510021327 16 157 0.0 0.0 0.00 0.00 0.00 99 1013.0
20260510020822 16 158 0.0 0.0 0.00 0.00 0.00 99 1012.7
20260510020317 17 158 0.0 0.0 0.00 0.00 0.00 99 1012.6
20260510015813 17 158 0.0 0.0 0.00 0.00 0.00 99 1012.5
20260510015309 17 158 0.0 0.0 0.00 0.00 0.00 99 1012.5
20260510014804 17 158 0.0 0.0 0.00 0.00 0.00 99 1012.4
20260510014302 17 157 0.0 0.0 0.00 0.00 0.00 99 1012.3
20260510013758 17 158 0.0 0.0 0.00 0.00 0.00 99 1012.2
20260510013254 17 159 0.0 0.0 0.00 0.00 0.00 99 1012.2
20260510012749 17 149 0.0 0.0 0.00 0.00 0.00 99 1012.1
20260510012244 17 174 0.0 0.0 0.00 0.00 0.00 99 1011.8
20260510011744 18 174 0.0 0.0 0.00 0.00 0.00 99 1011.7
20260510011239 18 182 0.0 0.0 0.00 0.00 0.00 99 1011.8
20260510005909 18 174 0.0 0.0 0.00 0.00 0.00 99 1011.3
20260510005406 18 174 0.0 0.0 0.00 0.00 0.00 99 1011.3
20260510004903 18 174 0.0 0.0 0.00 0.00 0.00 99 1011.0
20260510004401 19 174 0.0 0.0 0.00 0.00 0.00 98 1011.2
20260510003858 20 164 0.0 0.0 0.00 0.00 0.00 97 1011.1
20260510003355 20 152 0.0 0.0 0.00 0.00 0.00 96 1011.0
20260510002854 20 152 0.0 0.0 0.00 0.00 0.00 95 1010.8
20260510002351 20 149 0.0 0.0 0.00 0.00 0.00 94 1010.9
20260510001848 20 171 0.0 0.0 0.00 0.00 0.00 94 1010.8
20260510001346 20 152 0.0 0.0 0.00 0.00 0.00 93 1011.0
20260510000842 20 200 0.0 0.0 0.00 0.00 0.00 93 1010.7
20260510000341 20 158 0.0 0.0 0.00 0.00 0.00 93 1010.9
20260509235836 20 149 0.0 0.0 0.00 0.00 0.00 92 1010.9
20260509235332 21 144 0.0 0.0 0.00 0.00 0.00 91 1010.6
20260509234828 21 159 0.0 0.0 0.00 0.00 0.00 91 1010.7
20260509234326 21 180 0.0 0.0 0.00 0.00 0.00 91 1010.7
20260509233824 21 168 0.0 0.0 0.00 0.00 0.00 91 1010.8
20260509233321 21 217 0.0 0.0 0.00 0.00 0.00 90 1010.7
20260509232816 21 170 0.0 0.0 0.00 0.00 0.00 91 1010.5
20260509232314 21 135 0.0 0.0 0.00 0.00 0.00 91 1010.5
20260509231810 21 167 0.0 0.0 0.00 0.00 0.00 92 1010.5
20260509231307 21 167 0.0 0.0 0.00 0.00 0.00 92 1010.5
20260509230805 21 167 0.0 0.0 0.00 0.00 0.00 92 1010.5
20260509230302 21 167 0.0 0.0 0.00 0.00 0.00 91 1010.5
20260509225757 22 166 0.0 0.0 0.00 0.00 0.00 91 1010.5
20260509225253 22 167 0.0 0.0 0.00 0.00 0.00 90 1010.4
20260509224749 22 167 0.0 0.0 0.00 0.00 0.00 91 1010.5
20260509224247 22 167 0.0 0.0 0.00 0.00 0.00 89 1010.6
20260509223743 22 162 0.0 0.0 0.00 0.00 0.00 89 1010.3
20260509223240 22 160 0.0 0.0 0.00 0.00 0.00 88 1010.3
20260509222737 22 160 0.0 0.0 0.00 0.00 0.00 87 1010.5
20260509222232 22 137 0.0 0.0 0.00 0.00 0.00 83 1010.6
20260509221728 22 158 0.0 0.0 0.00 0.00 0.00 86 1010.4
20260509221224 23 178 0.0 0.0 0.00 0.00 0.00 83 1010.3
20260509220720 23 104 0.0 0.0 0.00 0.00 0.00 83 1010.0
20260509220217 22 81 0.0 0.0 0.00 0.00 0.00 84 1010.4
20260509215713 22 181 0.0 0.0 0.00 0.00 0.00 85 1010.1
20260509215210 23 169 0.0 0.0 0.00 0.00 0.00 82 1010.0
20260509214707 23 114 0.0 0.0 0.00 0.00 0.00 81 1009.9
20260509214204 22 277 0.0 1.6 0.00 0.00 0.00 82 1009.9
20260509213700 23 324 1.6 1.6 0.00 0.00 0.00 80 1009.8
20260509213156 23 240 1.6 1.6 0.00 0.00 0.00 80 1009.7
20260509212654 23 140 0.0 0.0 0.00 0.00 0.00 79 1009.7
20260509212151 23 148 1.6 1.6 0.00 0.00 0.00 78 1009.9
20260509211646 23 227 0.0 0.0 0.00 0.00 0.00 80 1009.8
20260509211143 23 134 0.0 0.0 0.00 0.00 0.00 82 1009.8
20260509210640 23 247 0.0 0.0 0.00 0.00 0.00 80 1009.8
20260509210137 23 305 0.0 0.0 0.00 0.00 0.00 81 1009.9
20260509205632 23 23 0.0 0.0 0.00 0.00 0.00 79 1009.8
20260509205127 23 276 0.0 0.0 0.00 0.00 0.00 79 1009.9
20260509204623 23 213 0.0 0.0 0.00 0.00 0.00 82 1010.1
20260509204120 23 198 0.0 0.0 0.00 0.00 0.00 80 1010.2
20260509203616 23 138 0.0 0.0 0.00 0.00 0.00 82 1010.1
20260509203115 23 249 3.2 3.2 0.00 0.00 0.00 83 1010.2
20260509202614 23 169 3.2 3.2 0.00 0.00 0.00 81 1010.6
20260509202110 23 203 0.0 0.0 0.00 0.00 0.00 80 1010.3
20260509201604 22 285 1.6 1.6 0.00 0.00 0.00 82 1010.4
20260509201103 23 271 1.6 1.6 0.00 0.00 0.00 81 1010.2
20260509200602 22 195 1.6 3.2 0.00 0.00 0.00 82 1010.6
20260509200059 22 139 0.0 0.0 0.00 0.00 0.00 82 1010.2
20260509195554 22 328 3.2 3.2 0.00 0.00 0.00 82 1010.5
20260509195049 22 212 1.6 1.6 0.00 0.00 0.00 82 1010.9
20260509194544 22 175 3.2 3.2 0.00 0.00 0.00 83 1010.7
20260509194042 22 270 1.6 1.6 0.00 0.00 0.00 81 1010.7
20260509193537 22 236 1.6 3.2 0.00 0.00 0.00 82 1010.8
20260509193033 22 257 4.8 4.8 0.00 0.00 0.00 82 1010.8
20260509192530 22 125 0.0 1.6 0.00 0.00 0.00 82 1010.9
20260509192025 22 230 3.2 3.2 0.00 0.00 0.00 81 1010.9
20260509191520 22 334 4.8 4.8 0.00 0.00 0.00 81 1011.0
20260509191015 22 127 1.6 1.6 0.00 0.00 0.00 81 1011.0
20260509190513 22 263 1.6 3.2 0.00 0.00 0.00 82 1011.1
20260509190010 22 248 1.6 3.2 0.00 0.00 0.00 81 1011.0
20260509185507 22 261 1.6 3.2 0.00 0.00 0.00 81 1011.3
20260509185003 22 155 1.6 3.2 0.00 0.00 0.00 81 1011.0
20260509184503 22 357 1.6 1.6 0.00 0.00 0.00 80 1011.1
20260509183958 22 115 0.0 1.6 0.00 0.00 0.00 82 1011.1
20260509183452 22 127 0.0 0.0 0.00 0.00 0.00 82 1011.5
20260509182949 21 103 1.6 1.6 0.00 0.00 0.00 83 1011.4
20260509182445 21 276 4.8 8.0 0.00 0.00 0.00 84 1011.5
20260509181943 21 158 0.0 0.0 0.00 0.00 0.00 85 1011.3
20260509181441 21 251 0.0 0.0 0.00 0.00 0.00 85 1011.6
20260509180938 22 228 3.2 3.2 0.00 0.00 0.00 84 1011.7
20260509180433 22 152 1.6 1.6 0.00 0.00 0.00 84 1011.4